Year,Month,Day,Hour,Minute,Value (Times are PST for temperature in C)
2011,07,24,00,00,11.80
2011,07,24,00,01,11.80
2011,07,24,00,02,11.80
2011,07,24,00,03,11.80
2011,07,24,00,04,11.70
2011,07,24,00,05,11.70
2011,07,24,00,06,11.70
2011,07,24,00,07,11.70
2011,07,24,00,08,11.70
2011,07,24,00,09,11.70
2011,07,24,00,10,11.70
2011,07,24,00,11,11.60
2011,07,24,00,12,11.60
2011,07,24,00,13,11.60
2011,07,24,00,14,11.60
2011,07,24,00,15,11.60
2011,07,24,00,16,11.60
2011,07,24,00,17,11.60
2011,07,24,00,18,11.60
2011,07,24,00,19,11.60
2011,07,24,00,20,11.50
2011,07,24,00,21,11.50
2011,07,24,00,22,11.60
2011,07,24,00,23,11.60
2011,07,24,00,24,11.60
2011,07,24,00,25,11.60
2011,07,24,00,26,11.60
2011,07,24,00,27,11.60
2011,07,24,00,28,11.70
2011,07,24,00,29,11.70
2011,07,24,00,30,11.70
2011,07,24,00,31,11.70
2011,07,24,00,32,11.70
2011,07,24,00,33,11.80
2011,07,24,00,34,11.80
2011,07,24,00,35,11.70
2011,07,24,00,36,11.70
2011,07,24,00,37,11.70
2011,07,24,00,38,11.70
2011,07,24,00,39,11.70
2011,07,24,00,40,11.70
2011,07,24,00,41,11.70
2011,07,24,00,42,11.70
2011,07,24,00,43,11.70
2011,07,24,00,44,11.70
2011,07,24,00,45,11.70
2011,07,24,00,46,11.70
2011,07,24,00,47,11.60
2011,07,24,00,48,11.60
2011,07,24,00,49,11.60
2011,07,24,00,50,11.60
2011,07,24,00,51,11.60
2011,07,24,00,52,11.60
2011,07,24,00,53,11.60
2011,07,24,00,54,11.60
2011,07,24,00,55,11.60
2011,07,24,00,56,11.50
2011,07,24,00,57,11.50
2011,07,24,00,58,11.50
2011,07,24,00,59,11.40
2011,07,24,01,00,11.40
2011,07,24,01,01,11.40
2011,07,24,01,02,11.30
2011,07,24,01,03,11.30
2011,07,24,01,04,11.30
2011,07,24,01,05,11.20
2011,07,24,01,06,11.20
2011,07,24,01,07,11.20
2011,07,24,01,08,11.20
2011,07,24,01,09,11.20
2011,07,24,01,10,11.10
2011,07,24,01,11,11.10
2011,07,24,01,12,11.10
2011,07,24,01,13,11.10
2011,07,24,01,14,11.10
2011,07,24,01,15,11.00
2011,07,24,01,16,11.00
2011,07,24,01,17,11.00
2011,07,24,01,18,11.00
2011,07,24,01,19,11.00
2011,07,24,01,20,11.00
2011,07,24,01,21,10.90
2011,07,24,01,22,10.90
2011,07,24,01,23,11.00
2011,07,24,01,24,10.90
2011,07,24,01,25,11.00
2011,07,24,01,26,10.90
2011,07,24,01,27,10.90
2011,07,24,01,28,10.90
2011,07,24,01,29,10.90
2011,07,24,01,30,10.90
2011,07,24,01,31,10.90
2011,07,24,01,32,10.90
2011,07,24,01,33,10.90
2011,07,24,01,34,10.90
2011,07,24,01,35,10.90
2011,07,24,01,36,10.90
2011,07,24,01,37,10.90
2011,07,24,01,38,10.90
2011,07,24,01,39,10.90
2011,07,24,01,40,10.90
2011,07,24,01,41,10.90
2011,07,24,01,42,10.90
2011,07,24,01,43,10.90
2011,07,24,01,44,10.90
2011,07,24,01,45,10.90
2011,07,24,01,46,10.90
2011,07,24,01,47,10.90
2011,07,24,01,48,10.90
2011,07,24,01,49,10.90
2011,07,24,01,50,10.80
2011,07,24,01,51,10.80
2011,07,24,01,52,10.80
2011,07,24,01,53,10.80
2011,07,24,01,54,10.80
2011,07,24,01,55,10.80
2011,07,24,01,56,10.80
2011,07,24,01,57,10.80
2011,07,24,01,58,10.80
2011,07,24,01,59,10.80
2011,07,24,02,00,10.80
2011,07,24,02,01,10.80
2011,07,24,02,02,10.80
2011,07,24,02,03,10.80
2011,07,24,02,04,10.80
2011,07,24,02,05,10.80
2011,07,24,02,06,10.80
2011,07,24,02,07,10.80
2011,07,24,02,08,10.80
2011,07,24,02,09,10.80
2011,07,24,02,10,10.80
2011,07,24,02,11,10.70
2011,07,24,02,12,10.70
2011,07,24,02,13,10.70
2011,07,24,02,14,10.70
2011,07,24,02,15,10.70
2011,07,24,02,16,10.70
2011,07,24,02,17,10.60
2011,07,24,02,18,10.60
2011,07,24,02,19,10.60
2011,07,24,02,20,10.60
2011,07,24,02,21,10.60
2011,07,24,02,22,10.60
2011,07,24,02,23,10.60
2011,07,24,02,24,10.50
2011,07,24,02,25,10.50
2011,07,24,02,26,10.50
2011,07,24,02,27,10.50
2011,07,24,02,28,10.50
2011,07,24,02,29,10.50
2011,07,24,02,30,10.50
2011,07,24,02,31,10.50
2011,07,24,02,32,10.50
2011,07,24,02,33,10.50
2011,07,24,02,34,10.40
2011,07,24,02,35,10.50
2011,07,24,02,36,10.50
2011,07,24,02,37,10.40
2011,07,24,02,38,10.40
2011,07,24,02,39,10.40
2011,07,24,02,40,10.40
2011,07,24,02,41,10.40
2011,07,24,02,42,10.40
2011,07,24,02,43,10.40
2011,07,24,02,44,10.40
2011,07,24,02,45,10.40
2011,07,24,02,46,10.40
2011,07,24,02,47,10.40
2011,07,24,02,48,10.40
2011,07,24,02,49,10.30
2011,07,24,02,50,10.30
2011,07,24,02,51,10.30
2011,07,24,02,52,10.30
2011,07,24,02,53,10.30
2011,07,24,02,54,10.30
2011,07,24,02,55,10.30
2011,07,24,02,56,10.30
2011,07,24,02,57,10.40
2011,07,24,02,58,10.40
2011,07,24,02,59,10.40
2011,07,24,03,00,10.40
2011,07,24,03,01,10.40
2011,07,24,03,02,10.40
2011,07,24,03,06,10.40
2011,07,24,03,07,10.40
2011,07,24,03,08,10.40
2011,07,24,03,09,10.40
2011,07,24,03,10,10.40
2011,07,24,03,11,10.40
2011,07,24,03,12,10.40
2011,07,24,03,13,10.40
2011,07,24,03,14,10.40
2011,07,24,03,15,10.40
2011,07,24,03,16,10.40
2011,07,24,03,17,10.40
2011,07,24,03,18,10.40
2011,07,24,03,19,10.40
2011,07,24,03,20,10.40
2011,07,24,03,21,10.40
2011,07,24,03,22,10.30
2011,07,24,03,23,10.30
2011,07,24,03,24,10.30
2011,07,24,03,25,10.30
2011,07,24,03,26,10.30
2011,07,24,03,27,10.30
2011,07,24,03,28,10.30
2011,07,24,03,29,10.30
2011,07,24,03,30,10.30
2011,07,24,03,31,10.30
2011,07,24,03,32,10.30
2011,07,24,03,33,10.30
2011,07,24,03,34,10.30
2011,07,24,03,35,10.30
2011,07,24,03,36,10.30
2011,07,24,03,37,10.30
2011,07,24,03,38,10.30
2011,07,24,03,39,10.30
2011,07,24,03,40,10.30
2011,07,24,03,41,10.30
2011,07,24,03,42,10.30
2011,07,24,03,43,10.30
2011,07,24,03,44,10.30
2011,07,24,03,45,10.30
2011,07,24,03,46,10.30
2011,07,24,03,47,10.30
2011,07,24,03,48,10.30
2011,07,24,03,49,10.30
2011,07,24,03,50,10.30
2011,07,24,03,51,10.30
2011,07,24,03,52,10.30
2011,07,24,03,53,10.20
2011,07,24,03,54,10.20
2011,07,24,03,55,10.20
2011,07,24,03,56,10.20
2011,07,24,03,57,10.20
2011,07,24,03,58,10.20
2011,07,24,03,59,10.20
2011,07,24,04,00,10.20
2011,07,24,04,01,10.20
2011,07,24,04,02,10.20
2011,07,24,04,03,10.20
2011,07,24,04,04,10.20
2011,07,24,04,05,10.20
2011,07,24,04,06,10.20
2011,07,24,04,07,10.20
2011,07,24,04,08,10.20
2011,07,24,04,09,10.20
2011,07,24,04,10,10.20
2011,07,24,04,11,10.20
2011,07,24,04,12,10.20
2011,07,24,04,13,10.20
2011,07,24,04,14,10.20
2011,07,24,04,15,10.20
2011,07,24,04,16,10.20
2011,07,24,04,17,10.20
2011,07,24,04,18,10.20
2011,07,24,04,19,10.20
2011,07,24,04,20,10.20
2011,07,24,04,21,10.20
2011,07,24,04,22,10.10
2011,07,24,04,23,10.10
2011,07,24,04,24,10.10
2011,07,24,04,25,10.10
2011,07,24,04,26,10.10
2011,07,24,04,27,10.10
2011,07,24,04,28,10.00
2011,07,24,04,29,10.00
2011,07,24,04,30,10.00
2011,07,24,04,31,10.00
2011,07,24,04,32,9.90
2011,07,24,04,33,9.90
2011,07,24,04,34,9.90
2011,07,24,04,35,9.90
2011,07,24,04,36,9.90
2011,07,24,04,37,9.90
2011,07,24,04,38,9.90
2011,07,24,04,39,9.90
2011,07,24,04,40,9.90
2011,07,24,04,41,9.90
2011,07,24,04,42,9.80
2011,07,24,04,43,9.80
2011,07,24,04,44,9.80
2011,07,24,04,45,9.80
2011,07,24,04,46,9.80
2011,07,24,04,47,9.80
2011,07,24,04,48,9.80
2011,07,24,04,49,9.80
2011,07,24,04,50,9.80
2011,07,24,04,51,9.80
2011,07,24,04,52,9.80
2011,07,24,04,53,9.80
2011,07,24,04,54,9.80
2011,07,24,04,55,9.80
2011,07,24,04,56,9.80
2011,07,24,04,57,9.80
2011,07,24,04,58,9.80
2011,07,24,04,59,9.80
2011,07,24,05,00,9.80
2011,07,24,05,01,9.80
2011,07,24,05,02,9.80
2011,07,24,05,03,9.80
2011,07,24,05,04,9.80
2011,07,24,05,05,9.80
2011,07,24,05,06,9.90
2011,07,24,05,07,9.90
2011,07,24,05,08,9.90
2011,07,24,05,09,9.90
2011,07,24,05,10,9.90
2011,07,24,05,11,9.90
2011,07,24,05,12,9.90
2011,07,24,05,13,9.90
2011,07,24,05,14,9.90
2011,07,24,05,15,9.90
2011,07,24,05,16,9.90
2011,07,24,05,17,9.90
2011,07,24,05,18,9.80
2011,07,24,05,19,9.80
2011,07,24,05,20,9.80
2011,07,24,05,21,9.80
2011,07,24,05,22,9.80
2011,07,24,05,23,9.80
2011,07,24,05,24,9.70
2011,07,24,05,25,9.70
2011,07,24,05,26,9.70
2011,07,24,05,27,9.70
2011,07,24,05,28,9.70
2011,07,24,05,29,9.70
2011,07,24,05,30,9.70
2011,07,24,05,31,9.70
2011,07,24,05,32,9.70
2011,07,24,05,33,9.70
2011,07,24,05,34,9.70
2011,07,24,05,35,9.70
2011,07,24,05,36,9.70
2011,07,24,05,37,9.70
2011,07,24,05,38,9.70
2011,07,24,05,39,9.70
2011,07,24,05,40,9.70
2011,07,24,05,41,9.60
2011,07,24,05,42,9.60
2011,07,24,05,43,9.60
2011,07,24,05,44,9.60
2011,07,24,05,45,9.60
2011,07,24,05,46,9.60
2011,07,24,05,47,9.60
2011,07,24,05,48,9.60
2011,07,24,05,49,9.60
2011,07,24,05,50,9.60
2011,07,24,05,51,9.60
2011,07,24,05,52,9.60
2011,07,24,05,53,9.60
2011,07,24,05,54,9.60
2011,07,24,05,55,9.60
2011,07,24,05,56,9.60
2011,07,24,05,57,9.60
2011,07,24,05,58,9.60
2011,07,24,05,59,9.60
2011,07,24,06,00,9.60
2011,07,24,06,01,9.60
2011,07,24,06,02,9.60
2011,07,24,06,03,9.60
2011,07,24,06,04,9.60
2011,07,24,06,05,9.60
2011,07,24,06,06,9.60
2011,07,24,06,07,9.60
2011,07,24,06,08,9.60
2011,07,24,06,09,9.60
2011,07,24,06,10,9.60
2011,07,24,06,11,9.60
2011,07,24,06,12,9.60
2011,07,24,06,13,9.60
2011,07,24,06,14,9.60
2011,07,24,06,15,9.60
2011,07,24,06,16,9.60
2011,07,24,06,17,9.60
2011,07,24,06,18,9.70
2011,07,24,06,19,9.70
2011,07,24,06,20,9.70
2011,07,24,06,21,9.70
2011,07,24,06,22,9.70
2011,07,24,06,23,9.70
2011,07,24,06,24,9.70
2011,07,24,06,25,9.70
2011,07,24,06,26,9.70
2011,07,24,06,27,9.70
2011,07,24,06,28,9.70
2011,07,24,06,29,9.70
2011,07,24,06,30,9.70
2011,07,24,06,31,9.70
2011,07,24,06,32,9.70
2011,07,24,06,33,9.70
2011,07,24,06,34,9.80
2011,07,24,06,35,9.80
2011,07,24,06,36,9.80
2011,07,24,06,37,9.80
2011,07,24,06,38,9.80
2011,07,24,06,39,9.80
2011,07,24,06,40,9.80
2011,07,24,06,41,9.80
2011,07,24,06,42,9.80
2011,07,24,06,43,9.80
2011,07,24,06,44,9.80
2011,07,24,06,45,9.80
2011,07,24,06,46,9.80
2011,07,24,06,47,9.80
2011,07,24,06,48,9.90
2011,07,24,06,49,9.90
2011,07,24,06,50,9.90
2011,07,24,06,51,9.90
2011,07,24,06,52,10.00
2011,07,24,06,53,10.10
2011,07,24,06,54,10.20
2011,07,24,06,55,10.20
2011,07,24,06,56,10.30
2011,07,24,06,57,10.30
2011,07,24,06,58,10.40
2011,07,24,06,59,10.50
2011,07,24,07,00,10.50
2011,07,24,07,01,10.60
2011,07,24,07,02,10.60
2011,07,24,07,03,10.60
2011,07,24,07,04,10.60
2011,07,24,07,05,10.70
2011,07,24,07,06,10.70
2011,07,24,07,07,10.70
2011,07,24,07,08,10.80
2011,07,24,07,09,10.80
2011,07,24,07,10,10.90
2011,07,24,07,11,10.90
2011,07,24,07,12,10.90
2011,07,24,07,13,11.00
2011,07,24,07,14,11.00
2011,07,24,07,15,11.10
2011,07,24,07,16,11.10
2011,07,24,07,17,11.10
2011,07,24,07,18,11.20
2011,07,24,07,19,11.20
2011,07,24,07,20,11.30
2011,07,24,07,21,11.30
2011,07,24,07,22,11.30
2011,07,24,07,23,11.40
2011,07,24,07,24,11.40
2011,07,24,07,25,11.40
2011,07,24,07,26,11.50
2011,07,24,07,27,11.50
2011,07,24,07,28,11.60
2011,07,24,07,29,11.60
2011,07,24,07,30,11.60
2011,07,24,07,31,11.60
2011,07,24,07,32,11.60
2011,07,24,07,33,11.70
2011,07,24,07,34,11.70
2011,07,24,07,35,11.80
2011,07,24,07,36,11.80
2011,07,24,07,37,11.90
2011,07,24,07,38,11.90
2011,07,24,07,39,12.00
2011,07,24,07,40,12.10
2011,07,24,07,41,12.10
2011,07,24,07,42,12.20
2011,07,24,07,43,12.30
2011,07,24,07,44,12.30
2011,07,24,07,45,12.40
2011,07,24,07,46,12.50
2011,07,24,07,47,12.50
2011,07,24,07,48,12.60
2011,07,24,07,49,12.70
2011,07,24,07,50,12.70
2011,07,24,07,51,12.80
2011,07,24,07,52,12.80
2011,07,24,07,53,12.90
2011,07,24,07,54,13.00
2011,07,24,07,55,13.00
2011,07,24,07,56,13.10
2011,07,24,07,57,13.10
2011,07,24,07,58,13.20
2011,07,24,07,59,13.30
2011,07,24,08,00,13.40
2011,07,24,08,01,13.50
2011,07,24,08,02,13.60
2011,07,24,08,03,13.70
2011,07,24,08,04,13.70
2011,07,24,08,05,13.80
2011,07,24,08,06,13.90
2011,07,24,08,07,13.90
2011,07,24,08,08,14.00
2011,07,24,08,09,14.10
2011,07,24,08,10,14.10
2011,07,24,08,11,14.20
2011,07,24,08,12,14.30
2011,07,24,08,13,14.40
2011,07,24,08,14,14.50
2011,07,24,08,15,14.60
2011,07,24,08,16,14.70
2011,07,24,08,17,14.80
2011,07,24,08,18,15.00
2011,07,24,08,19,15.00
2011,07,24,08,20,15.00
2011,07,24,08,21,15.10
2011,07,24,08,22,15.30
2011,07,24,08,23,15.40
2011,07,24,08,24,15.50
2011,07,24,08,25,15.60
2011,07,24,08,26,15.70
2011,07,24,08,27,15.80
2011,07,24,08,28,16.00
2011,07,24,08,29,16.10
2011,07,24,08,30,16.30
2011,07,24,08,31,16.50
2011,07,24,08,32,16.60
2011,07,24,08,33,16.80
2011,07,24,08,34,17.00
2011,07,24,08,35,17.10
2011,07,24,08,36,17.20
2011,07,24,08,37,17.30
2011,07,24,08,38,17.40
2011,07,24,08,39,17.50
2011,07,24,08,40,17.60
2011,07,24,08,41,17.70
2011,07,24,08,42,17.80
2011,07,24,08,43,18.00
2011,07,24,08,44,18.00
2011,07,24,08,45,18.20
2011,07,24,08,46,18.30
2011,07,24,08,47,18.40
2011,07,24,08,48,18.50
2011,07,24,08,49,18.60
2011,07,24,08,50,18.70
2011,07,24,08,51,18.80
2011,07,24,08,52,18.90
2011,07,24,08,53,18.90
2011,07,24,08,54,19.00
2011,07,24,08,55,19.10
2011,07,24,08,56,19.20
2011,07,24,08,57,19.20
2011,07,24,08,58,19.30
2011,07,24,08,59,19.40
2011,07,24,09,00,19.40
2011,07,24,09,01,19.50
2011,07,24,09,02,19.70
2011,07,24,09,03,19.80
2011,07,24,09,04,19.80
2011,07,24,09,05,19.90
2011,07,24,09,06,19.90
2011,07,24,09,07,20.00
2011,07,24,09,08,20.10
2011,07,24,09,09,20.10
2011,07,24,09,10,20.20
2011,07,24,09,11,20.20
2011,07,24,09,12,20.30
2011,07,24,09,13,20.40
2011,07,24,09,14,20.40
2011,07,24,09,15,20.50
2011,07,24,09,16,20.60
2011,07,24,09,17,20.70
2011,07,24,09,18,20.70
2011,07,24,09,19,20.80
2011,07,24,09,20,20.90
2011,07,24,09,21,20.90
2011,07,24,09,22,21.00
2011,07,24,09,23,21.00
2011,07,24,09,24,21.10
2011,07,24,09,25,21.10
2011,07,24,09,26,21.10
2011,07,24,09,27,21.10
2011,07,24,09,28,21.20
2011,07,24,09,29,21.20
2011,07,24,09,30,21.20
2011,07,24,09,31,21.20
2011,07,24,09,32,21.20
2011,07,24,09,33,21.20
2011,07,24,09,34,21.20
2011,07,24,09,35,21.20
2011,07,24,09,36,21.20
2011,07,24,09,37,21.20
2011,07,24,09,38,21.20
2011,07,24,09,39,21.20
2011,07,24,09,40,21.20
2011,07,24,09,41,21.30
2011,07,24,09,42,21.30
2011,07,24,09,43,21.30
2011,07,24,09,44,21.30
2011,07,24,09,45,21.30
2011,07,24,09,46,21.30
2011,07,24,09,47,21.40
2011,07,24,09,48,21.40
2011,07,24,09,49,21.50
2011,07,24,09,50,21.50
2011,07,24,09,51,21.60
2011,07,24,09,52,21.60
2011,07,24,09,53,21.60
2011,07,24,09,54,21.60
2011,07,24,09,55,21.60
2011,07,24,09,56,21.60
2011,07,24,09,57,21.60
2011,07,24,09,58,21.60
2011,07,24,09,59,21.60
2011,07,24,10,00,21.50
2011,07,24,10,01,21.50
2011,07,24,10,02,21.50
2011,07,24,10,03,21.60
2011,07,24,10,04,21.70
2011,07,24,10,05,21.80
2011,07,24,10,06,21.80
2011,07,24,10,07,21.90
2011,07,24,10,08,22.00
2011,07,24,10,09,22.00
2011,07,24,10,10,22.00
2011,07,24,10,11,22.10
2011,07,24,10,12,22.10
2011,07,24,10,13,22.10
2011,07,24,10,14,22.10
2011,07,24,10,15,22.20
2011,07,24,10,16,22.20
2011,07,24,10,17,22.20
2011,07,24,10,18,22.20
2011,07,24,10,19,22.30
2011,07,24,10,20,22.40
2011,07,24,10,21,22.50
2011,07,24,10,22,22.60
2011,07,24,10,23,22.70
2011,07,24,10,24,22.80
2011,07,24,10,25,23.00
2011,07,24,10,26,23.10
2011,07,24,10,27,23.20
2011,07,24,10,28,23.30
2011,07,24,10,29,23.40
2011,07,24,10,30,23.40
2011,07,24,10,31,23.40
2011,07,24,10,32,23.40
2011,07,24,10,33,23.40
2011,07,24,10,34,23.50
2011,07,24,10,35,23.50
2011,07,24,10,36,23.50
2011,07,24,10,37,23.50
2011,07,24,10,38,23.50
2011,07,24,10,39,23.50
2011,07,24,10,40,23.40
2011,07,24,10,41,23.40
2011,07,24,10,42,23.40
2011,07,24,10,43,23.40
2011,07,24,10,44,23.30
2011,07,24,10,45,23.30
2011,07,24,10,46,23.40
2011,07,24,10,47,23.40
2011,07,24,10,48,23.40
2011,07,24,10,49,23.40
2011,07,24,10,50,23.40
2011,07,24,10,51,23.40
2011,07,24,10,52,23.30
2011,07,24,10,53,23.30
2011,07,24,10,54,23.30
2011,07,24,10,55,23.30
2011,07,24,10,56,23.40
2011,07,24,10,57,23.40
2011,07,24,10,58,23.40
2011,07,24,10,59,23.40
2011,07,24,11,00,23.50
2011,07,24,11,01,23.50
2011,07,24,11,02,23.60
2011,07,24,11,03,23.60
2011,07,24,11,04,23.70
2011,07,24,11,05,23.70
2011,07,24,11,06,23.70
2011,07,24,11,07,23.70
2011,07,24,11,08,23.60
2011,07,24,11,09,23.50
2011,07,24,11,10,23.50
2011,07,24,11,11,23.40
2011,07,24,11,12,23.40
2011,07,24,11,13,23.30
2011,07,24,11,14,23.30
2011,07,24,11,15,23.20
2011,07,24,11,16,23.20
2011,07,24,11,17,23.20
2011,07,24,11,18,23.20
2011,07,24,11,19,23.20
2011,07,24,11,20,23.20
2011,07,24,11,21,23.20
2011,07,24,11,22,23.30
2011,07,24,11,23,23.30
2011,07,24,11,24,23.40
2011,07,24,11,25,23.40
2011,07,24,11,26,23.50
2011,07,24,11,27,23.50
2011,07,24,11,28,23.60
2011,07,24,11,29,23.60
2011,07,24,11,30,23.60
2011,07,24,11,31,23.70
2011,07,24,11,32,23.60
2011,07,24,11,33,23.60
2011,07,24,11,34,23.60
2011,07,24,11,35,23.50
2011,07,24,11,36,23.50
2011,07,24,11,37,23.50
2011,07,24,11,38,23.50
2011,07,24,11,39,23.50
2011,07,24,11,40,23.40
2011,07,24,11,41,23.40
2011,07,24,11,42,23.40
2011,07,24,11,43,23.40
2011,07,24,11,44,23.50
2011,07,24,11,45,23.50
2011,07,24,11,46,23.50
2011,07,24,11,47,23.60
2011,07,24,11,48,23.60
2011,07,24,11,49,23.70
2011,07,24,11,50,23.60
2011,07,24,11,51,23.70
2011,07,24,11,52,23.70
2011,07,24,11,53,23.70
2011,07,24,11,54,23.70
2011,07,24,11,55,23.70
2011,07,24,11,56,23.80
2011,07,24,11,57,23.80
2011,07,24,11,58,23.90
2011,07,24,11,59,24.10
2011,07,24,12,00,24.10
2011,07,24,12,01,24.10
2011,07,24,12,02,24.10
2011,07,24,12,03,24.20
2011,07,24,12,04,24.20
2011,07,24,12,05,24.20
2011,07,24,12,06,24.20
2011,07,24,12,07,24.20
2011,07,24,12,08,24.30
2011,07,24,12,09,24.40
2011,07,24,12,10,24.40
2011,07,24,12,11,24.40
2011,07,24,12,12,24.40
2011,07,24,12,13,24.40
2011,07,24,12,14,24.40
2011,07,24,12,15,24.40
2011,07,24,12,16,24.40
2011,07,24,12,17,24.50
2011,07,24,12,18,24.40
2011,07,24,12,19,24.40
2011,07,24,12,20,24.50
2011,07,24,12,21,24.60
2011,07,24,12,22,24.60
2011,07,24,12,23,24.60
2011,07,24,12,24,24.70
2011,07,24,12,25,24.70
2011,07,24,12,26,24.80
2011,07,24,12,27,24.70
2011,07,24,12,28,24.70
2011,07,24,12,29,24.70
2011,07,24,12,30,24.80
2011,07,24,12,31,24.90
2011,07,24,12,32,24.90
2011,07,24,12,33,24.90
2011,07,24,12,34,24.90
2011,07,24,12,35,24.90
2011,07,24,12,36,24.90
2011,07,24,12,37,24.90
2011,07,24,12,38,24.90
2011,07,24,12,39,24.90
2011,07,24,12,40,24.80
2011,07,24,12,41,24.80
2011,07,24,12,42,24.80
2011,07,24,12,43,24.70
2011,07,24,12,44,24.70
2011,07,24,12,45,24.70
2011,07,24,12,46,24.70
2011,07,24,12,47,24.70
2011,07,24,12,48,24.70
2011,07,24,12,49,24.80
2011,07,24,12,50,24.80
2011,07,24,12,51,24.80
2011,07,24,12,52,24.90
2011,07,24,12,53,24.90
2011,07,24,12,54,24.90
2011,07,24,12,55,24.90
2011,07,24,12,56,24.90
2011,07,24,12,57,24.90
2011,07,24,12,58,24.90
2011,07,24,12,59,24.80
2011,07,24,13,00,24.90
2011,07,24,13,01,25.00
2011,07,24,13,02,25.10
2011,07,24,13,03,25.20
2011,07,24,13,04,25.30
2011,07,24,13,05,25.40
2011,07,24,13,06,25.50
2011,07,24,13,07,25.60
2011,07,24,13,08,25.60
2011,07,24,13,09,25.60
2011,07,24,13,10,25.60
2011,07,24,13,11,25.50
2011,07,24,13,12,25.50
2011,07,24,13,13,25.50
2011,07,24,13,14,25.60
2011,07,24,13,15,25.60
2011,07,24,13,16,25.70
2011,07,24,13,17,25.70
2011,07,24,13,18,25.80
2011,07,24,13,19,25.80
2011,07,24,13,20,25.80
2011,07,24,13,21,25.80
2011,07,24,13,22,25.80
2011,07,24,13,23,25.80
2011,07,24,13,24,25.80
2011,07,24,13,25,25.70
2011,07,24,13,26,25.60
2011,07,24,13,27,25.60
2011,07,24,13,28,25.60
2011,07,24,13,29,25.70
2011,07,24,13,30,25.80
2011,07,24,13,31,25.90
2011,07,24,13,32,25.90
2011,07,24,13,33,26.00
2011,07,24,13,34,26.00
2011,07,24,13,35,26.10
2011,07,24,13,36,26.10
2011,07,24,13,37,26.10
2011,07,24,13,38,26.20
2011,07,24,13,39,26.30
2011,07,24,13,40,26.30
2011,07,24,13,41,26.30
2011,07,24,13,42,26.30
2011,07,24,13,43,26.30
2011,07,24,13,44,26.30
2011,07,24,13,45,26.30
2011,07,24,13,46,26.30
2011,07,24,13,47,26.30
2011,07,24,13,48,26.20
2011,07,24,13,49,26.20
2011,07,24,13,50,26.30
2011,07,24,13,51,26.40
2011,07,24,13,52,26.50
2011,07,24,13,53,26.50
2011,07,24,13,54,26.50
2011,07,24,13,55,26.40
2011,07,24,13,56,26.40
2011,07,24,13,57,26.40
2011,07,24,13,58,26.50
2011,07,24,13,59,26.50
2011,07,24,14,00,26.50
2011,07,24,14,01,26.40
2011,07,24,14,02,26.40
2011,07,24,14,03,26.30
2011,07,24,14,04,26.20
2011,07,24,14,05,26.20
2011,07,24,14,06,26.20
2011,07,24,14,07,26.10
2011,07,24,14,08,26.00
2011,07,24,14,09,26.00
2011,07,24,14,10,26.10
2011,07,24,14,11,26.20
2011,07,24,14,12,26.30
2011,07,24,14,13,26.30
2011,07,24,14,14,26.40
2011,07,24,14,15,26.50
2011,07,24,14,16,26.50
2011,07,24,14,17,26.60
2011,07,24,14,18,26.60
2011,07,24,14,19,26.60
2011,07,24,14,20,26.60
2011,07,24,14,21,26.60
2011,07,24,14,22,26.70
2011,07,24,14,23,26.80
2011,07,24,14,24,26.70
2011,07,24,14,25,26.60
2011,07,24,14,26,26.50
2011,07,24,14,27,26.50
2011,07,24,14,28,26.50
2011,07,24,14,29,26.60
2011,07,24,14,30,26.70
2011,07,24,14,31,26.80
2011,07,24,14,32,26.80
2011,07,24,14,33,26.90
2011,07,24,14,34,27.00
2011,07,24,14,35,27.10
2011,07,24,14,36,27.20
2011,07,24,14,37,27.20
2011,07,24,14,38,27.30
2011,07,24,14,39,27.50
2011,07,24,14,40,27.60
2011,07,24,14,41,27.60
2011,07,24,14,42,27.70
2011,07,24,14,43,27.70
2011,07,24,14,44,27.70
2011,07,24,14,45,27.70
2011,07,24,14,46,27.70
2011,07,24,14,47,27.70
2011,07,24,14,48,27.70
2011,07,24,14,49,27.60
2011,07,24,14,50,27.60
2011,07,24,14,51,27.60
2011,07,24,14,52,27.60
2011,07,24,14,53,27.60
2011,07,24,14,54,27.70
2011,07,24,14,55,27.70
2011,07,24,14,56,27.80
2011,07,24,14,57,27.80
2011,07,24,14,58,27.80
2011,07,24,14,59,27.90
2011,07,24,15,00,27.80
2011,07,24,15,01,27.80
2011,07,24,15,02,27.80
2011,07,24,15,03,27.80
2011,07,24,15,04,27.80
2011,07,24,15,05,27.80
2011,07,24,15,06,27.70
2011,07,24,15,07,27.70
2011,07,24,15,08,27.80
2011,07,24,15,09,27.80
2011,07,24,15,10,27.90
2011,07,24,15,11,27.90
2011,07,24,15,12,27.90
2011,07,24,15,13,27.90
2011,07,24,15,14,27.80
2011,07,24,15,15,27.80
2011,07,24,15,16,27.70
2011,07,24,15,17,27.70
2011,07,24,15,18,27.60
2011,07,24,15,19,27.70
2011,07,24,15,20,27.70
2011,07,24,15,21,27.70
2011,07,24,15,22,27.70
2011,07,24,15,23,27.70
2011,07,24,15,24,27.80
2011,07,24,15,25,27.90
2011,07,24,15,26,28.00
2011,07,24,15,27,28.10
2011,07,24,15,28,28.30
2011,07,24,15,29,28.30
2011,07,24,15,30,28.40
2011,07,24,15,31,28.50
2011,07,24,15,32,28.50
2011,07,24,15,33,28.50
2011,07,24,15,34,28.40
2011,07,24,15,35,28.30
2011,07,24,15,36,28.30
2011,07,24,15,37,28.20
2011,07,24,15,38,28.10
2011,07,24,15,39,27.90
2011,07,24,15,40,27.90
2011,07,24,15,41,27.90
2011,07,24,15,42,27.90
2011,07,24,15,43,27.90
2011,07,24,15,44,27.90
2011,07,24,15,45,27.90
2011,07,24,15,46,28.00
2011,07,24,15,47,28.10
2011,07,24,15,48,28.20
2011,07,24,15,49,28.30
2011,07,24,15,50,28.40
2011,07,24,15,51,28.50
2011,07,24,15,52,28.70
2011,07,24,15,53,28.80
2011,07,24,15,54,28.90
2011,07,24,15,55,29.00
2011,07,24,15,56,29.20
2011,07,24,15,57,29.30
2011,07,24,15,58,29.30
2011,07,24,15,59,29.40
2011,07,24,16,00,29.50
2011,07,24,16,01,29.50
2011,07,24,16,02,29.60
2011,07,24,16,03,29.60
2011,07,24,16,04,29.60
2011,07,24,16,05,29.50
2011,07,24,16,06,29.50
2011,07,24,16,07,29.40
2011,07,24,16,08,29.10
2011,07,24,16,09,29.00
2011,07,24,16,10,28.90
2011,07,24,16,11,28.80
2011,07,24,16,12,28.80
2011,07,24,16,13,28.80
2011,07,24,16,14,28.70
2011,07,24,16,15,28.60
2011,07,24,16,16,28.50
2011,07,24,16,17,28.50
2011,07,24,16,18,28.50
2011,07,24,16,19,28.50
2011,07,24,16,20,28.60
2011,07,24,16,21,28.60
2011,07,24,16,22,28.70
2011,07,24,16,23,28.70
2011,07,24,16,24,28.70
2011,07,24,16,25,28.80
2011,07,24,16,26,28.90
2011,07,24,16,27,28.90
2011,07,24,16,28,28.90
2011,07,24,16,29,28.90
2011,07,24,16,30,29.00
2011,07,24,16,31,29.10
2011,07,24,16,32,29.10
2011,07,24,16,33,29.10
2011,07,24,16,34,29.10
2011,07,24,16,35,29.10
2011,07,24,16,36,29.10
2011,07,24,16,37,29.20
2011,07,24,16,38,29.40
2011,07,24,16,39,29.50
2011,07,24,16,40,29.60
2011,07,24,16,41,29.70
2011,07,24,16,42,29.70
2011,07,24,16,43,29.60
2011,07,24,16,44,29.60
2011,07,24,16,45,29.50
2011,07,24,16,46,29.50
2011,07,24,16,47,29.60
2011,07,24,16,48,29.60
2011,07,24,16,49,29.60
2011,07,24,16,50,29.50
2011,07,24,16,51,29.50
2011,07,24,16,52,29.50
2011,07,24,16,53,29.50
2011,07,24,16,54,29.60
2011,07,24,16,55,29.60
2011,07,24,16,56,29.60
2011,07,24,16,57,29.60
2011,07,24,16,58,29.60
2011,07,24,16,59,29.70
2011,07,24,17,00,29.70
2011,07,24,17,01,29.70
2011,07,24,17,02,29.70
2011,07,24,17,03,29.80
2011,07,24,17,04,29.80
2011,07,24,17,05,29.80
2011,07,24,17,06,29.80
2011,07,24,17,07,29.80
2011,07,24,17,08,29.80
2011,07,24,17,09,29.80
2011,07,24,17,10,29.80
2011,07,24,17,11,29.70
2011,07,24,17,12,29.70
2011,07,24,17,13,29.80
2011,07,24,17,14,29.80
2011,07,24,17,15,29.80
2011,07,24,17,16,29.80
2011,07,24,17,17,29.80
2011,07,24,17,18,29.90
2011,07,24,17,19,29.90
2011,07,24,17,20,29.80
2011,07,24,17,21,29.80
2011,07,24,17,22,29.70
2011,07,24,17,23,29.70
2011,07,24,17,24,29.80
2011,07,24,17,25,29.80
2011,07,24,17,26,29.80
2011,07,24,17,27,29.80
2011,07,24,17,28,29.90